Location: Amsterdam
(30.7274°N, 84.4357°W)
Time: 05:54:01
(UTC+00:00)

Explorer 11/Cluster Stage 4 - Pass Details

Date: 17 February 2026
Orbit: 463 x 1175 km, 28.8° (Epoch: 13 March)

Event Time Altitude Azimuth Distance (km) Brightness Sun altitude
Rises 20:17:42 0° 262° (W) 2,602 9.9 34.9°
Reaches altitude 10° 20:20:01 10° 259° (W) 1,660 9.2 34.6°
Maximum altitude 20:23:42 64° 177° (S) 515 6.6 34.0°
Drops below altitude 10° 20:27:15 10° 96° (E) 1,602 7.9 33.4°
Sets 20:29:26 0° 93° (E) 2,500 8.8 33.1°
